Torna al catalogo

STARLINK-30613

AttivoComunicazioniVLEO
NORAD 58077·PAYLOAD·🇺🇸 United States

Lanciato Oct 18, 2023 da Cape Canaveral Space Force Station

Loading…

Prossimi Passaggi (prossime 24 ore)

TLE

AggiornatoSource: CelesTrak SupGP

Epoca: Sep 15, 2026, 02:56 UTC

1 58077C 23160C   26258.12270833  .00001253  00000+0  45365-4 0  2583
2 58077  42.9997  87.9948 0001439 272.0257 248.3278 15.27583204    18

Traccia STARLINK-30613 in tempo reale con AllMySat

Download on the App Store